Weather History for EDQM - March, 2014

Change the Weather History Date:

Thursday, March 27, 2014

  Actual Average Record
Temperature  
Mean Temperature 42 °F -  
Max Temperature 52 °F 47 °F 60 °F (2003)
Min Temperature 32 °F 33 °F 18 °F (2013)
Degree Days  
Heating Degree Days 23    
Moisture  
Dew Point 30 °F    
Average Humidity 59    
Maximum Humidity 81    
Minimum Humidity 34    
Precipitation  
Precipitation 0.00 in - - ()
Sea Level Pressure  
Sea Level Pressure 29.93 in    
Wind  
Wind Speed 7 mph ()    
Max Wind Speed 16 mph    
Max Gust Speed -    
Visibility 8.3 miles    
Events      
Averages and records for this station are not official NWS values.
T = Trace of Precipitation, MM = Missing Value Source: Averaged Metar Reports

Daily Weather History Graph

Daily Weather History Graph

Search for Another Location

Airport or City:

Trip Planner

Search our weather history database for the weather conditions in past years. The results will help you decide how hot, cold, wet, or windy it might be!

Date:

Astronomy

Mar. 27, 2014 Rise Set
Actual Time 6:00 AM CET 6:36 PM CET
Civil Twilight 5:27 AM CET 7:09 PM CET
Nautical Twilight 4:48 AM CET 7:48 PM CET
Astronomical Twilight 4:08 AM CET 8:29 PM CET
Moon 4:01 AM CET (3/27) 2:45 PM CET (3/27)
Length of Visible Light 13h 41m
Length of Day
12h 36m
Waning Crescent, 15% of the Moon is Illuminated
Mar 27
Waning Crescent
Mar 30
New
Apr 7
First Quarter
Apr 15
Full
Apr 22
Last Quarter

Hourly Weather History & Observations

Time (CET) Temp. Windchill Dew Point Humidity Pressure Visibility Wind Dir Wind Speed Gust Speed Precip Events Conditions
12:00 AM 37 °F - 29 °F 64% 30.01 in 7 mi East 6.7 mph - -  
12:20 AM 35.6 °F 29.9 °F 28.4 °F 75% 29.95 in 6.2 mi ENE 6.9 mph - N/A   Unknown
12:50 AM 37.4 °F 32.1 °F 28.4 °F 70% 29.95 in 6.2 mi ENE 6.9 mph - N/A   Unknown
1:00 AM 36 °F - 29 °F 69% 30.01 in 7 mi East 4.5 mph - -   Overcast
1:20 AM 35.6 °F 31.7 °F 28.4 °F 75% 29.95 in 6.2 mi ENE 4.6 mph - N/A   Unknown
1:50 AM 35.6 °F 31.7 °F 28.4 °F 75% 29.95 in 6.2 mi NE 4.6 mph - N/A   Partly Cloudy
2:00 AM 33 °F - 28 °F 73% 30.02 in 6 mi ENE 2.2 mph - -   Overcast
2:20 AM 37.4 °F 32.1 °F 28.4 °F 70% 29.95 in 6.2 mi NE 6.9 mph - N/A   Mostly Cloudy
2:50 AM 35.6 °F 31.7 °F 28.4 °F 75% 29.95 in 6.2 mi NNE 4.6 mph - N/A   Partly Cloudy
3:00 AM 33 °F - 29 °F 81% 30.01 in 5 mi NW 2.2 mph - -   Overcast
3:20 AM 35.6 °F 30.7 °F 28.4 °F 75% 29.95 in 6.2 mi North 5.8 mph - N/A   Unknown
3:50 AM 35.6 °F 31.7 °F 28.4 °F 75% 29.92 in 6.2 mi NNE 4.6 mph - N/A   Unknown
4:20 AM 35.6 °F 31.7 °F 28.4 °F 75% 29.92 in 6.2 mi NNE 4.6 mph - N/A   Unknown
4:50 AM 35.6 °F 29.2 °F 28.4 °F 75% 29.92 in 6.2 mi East 8.1 mph - N/A   Scattered Clouds
5:00 AM 37 °F - 31 °F 69% 29.97 in 7 mi East 6.7 mph - -   Overcast
5:20 AM 35.6 °F 29.9 °F 28.4 °F 75% 29.92 in 6.2 mi ENE 6.9 mph - N/A   Overcast
5:50 AM 35.6 °F 29.9 °F 28.4 °F 75% 29.92 in 6.2 mi East 6.9 mph - N/A   Mostly Cloudy
6:00 AM 36 °F - 30 °F 72% 29.97 in 9 mi East 4.5 mph - -   Partly Cloudy
6:20 AM 35.6 °F 30.7 °F 28.4 °F 75% 29.92 in 6.2 mi ENE 5.8 mph - N/A   Scattered Clouds
6:50 AM 35.6 °F 31.7 °F 28.4 °F 75% 29.92 in 6.2 mi East 4.6 mph - N/A   Mostly Cloudy
7:00 AM 38 °F - 31 °F 66% 29.98 in 9 mi ESE 4.5 mph - -   Mostly Cloudy
7:20 AM 37.4 °F 32.8 °F 28.4 °F 70% 29.92 in 6.2 mi East 5.8 mph - N/A   Partly Cloudy
7:50 AM 39.2 °F 35.9 °F 28.4 °F 65% 29.95 in - East 4.6 mph - N/A   Clear
8:00 AM 39 °F - 31 °F 64% 29.97 in 11 mi East 8.9 mph - -   Mostly Cloudy
8:20 AM 39.2 °F 37.0 °F 30.2 °F 70% 29.95 in - ENE 3.5 mph - N/A   Clear
8:50 AM 41.0 °F 38.0 °F 30.2 °F 65% 29.92 in - East 4.6 mph - N/A   Clear
9:00 AM 42 °F - 32 °F 58% 29.96 in 11 mi East 6.7 mph - -   Mostly Cloudy
9:20 AM 42.8 °F 38.6 °F 30.2 °F 61% 29.95 in - East 6.9 mph - N/A   Clear
9:50 AM 44.6 °F 39.7 °F 30.2 °F 57% 29.92 in - ESE 9.2 mph - N/A   Clear
10:20 AM 46.4 °F 40.4 °F 33.8 °F 62% 29.92 in - ESE 13.8 mph - N/A   Clear
10:50 AM 48.2 °F - 32.0 °F 54% 29.92 in - ESE 15.0 mph - N/A   Clear
11:00 AM 49 °F - 32 °F 39% 29.92 in 14 mi ESE 15.7 mph - -   Partly Cloudy
11:20 AM 48.2 °F - 30.2 °F 50% 29.92 in 6.2 mi ESE 16.1 mph - N/A   Partly Cloudy
11:50 AM 50.0 °F - 30.2 °F 47% 29.92 in 6.2 mi East 15.0 mph - N/A   Scattered Clouds
12:00 PM 50 °F - 31 °F 36% 29.91 in 16 mi ESE 11.2 mph - -   Partly Cloudy
12:20 PM 50.0 °F - 30.2 °F 47% 29.92 in 6.2 mi East 16.1 mph - N/A   Scattered Clouds
12:50 PM 50.0 °F - 30.2 °F 47% 29.92 in 6.2 mi East 16.1 mph - N/A   Scattered Clouds
1:00 PM 51 °F - 31 °F 34% 29.90 in 17 mi SE 11.2 mph - -   Partly Cloudy
1:20 PM 50.0 °F - 30.2 °F 47% 29.89 in 6.2 mi East 16.1 mph - N/A   Scattered Clouds
1:50 PM 50.0 °F - 30.2 °F 47% 29.89 in 6.2 mi ENE 12.7 mph - N/A   Scattered Clouds
2:00 PM 50 °F - 30 °F 34% 29.89 in 14 mi East 11.2 mph - -  
2:20 PM 51.8 °F - 30.2 °F 44% 29.89 in - ESE 13.8 mph - N/A   Clear
2:50 PM 50.0 °F - 28.4 °F 43% 29.89 in - East 15.0 mph - N/A   Clear
3:00 PM 51 °F - 31 °F 34% 29.88 in 16 mi East 11.2 mph - -  
3:20 PM 50.0 °F - 30.2 °F 47% 29.89 in - East 12.7 mph - N/A   Clear
3:50 PM 50.0 °F - 30.2 °F 47% 29.89 in - East 13.8 mph - N/A   Clear
4:20 PM 50.0 °F - 30.2 °F 47% 29.89 in - East 11.5 mph - N/A   Clear
4:50 PM 50.0 °F - 32.0 °F 50% 29.89 in - East 9.2 mph - N/A   Clear
5:00 PM 51 °F - 32 °F 36% 29.87 in 16 mi East 6.7 mph - -  
5:20 PM 50.0 °F - 30.2 °F 47% 29.89 in - East 10.4 mph - N/A   Clear
5:50 PM 50.0 °F - 30.2 °F 47% 29.89 in - East 8.1 mph - N/A   Clear
6:00 PM 50 °F - 33 °F 39% 29.89 in 12 mi East 6.7 mph - -   Overcast
6:20 PM 50.0 °F - 30.2 °F 47% 29.89 in - ENE 8.1 mph - N/A   Clear
6:50 PM 48.2 °F - 32.0 °F 54% 29.92 in - ENE 9.2 mph - N/A   Clear
7:00 PM 48 °F - 34 °F 46% 29.91 in 12 mi East 8.9 mph - -  
7:20 PM 46.4 °F 42.9 °F 32.0 °F 57% 29.92 in - ENE 6.9 mph - N/A   Clear
7:50 PM 46.4 °F 42.9 °F 32.0 °F 57% 29.92 in - ENE 6.9 mph - N/A   Clear
8:00 PM 46 °F - 34 °F 51% 29.94 in 11 mi East 4.5 mph - -  
8:20 PM 44.6 °F 41.4 °F 32.0 °F 61% 29.95 in - ENE 5.8 mph - N/A   Clear
8:50 PM 44.6 °F 42.2 °F 32.0 °F 61% 29.95 in - NE 4.6 mph - N/A   Clear
9:00 PM 43 °F - 33 °F 57% 29.96 in 10 mi NE 2.2 mph - -  
9:20 PM 44.6 °F 42.2 °F 32.0 °F 61% 29.95 in 6.2 mi NE 4.6 mph - N/A   Unknown
9:50 PM 42.8 °F 40.1 °F 30.2 °F 61% 29.95 in 6.2 mi NE 4.6 mph - N/A   Unknown
10:20 PM 42.8 °F 38.6 °F 30.2 °F 61% 29.95 in 6.2 mi NE 6.9 mph - N/A   Unknown
10:50 PM 42.8 °F 39.3 °F 30.2 °F 61% 29.98 in 6.2 mi NE 5.8 mph - N/A   Unknown
11:00 PM 42 °F - 33 °F 60% 29.99 in 12 mi ENE 4.5 mph - -  
11:20 PM 42.8 °F 38.6 °F 30.2 °F 61% 29.98 in 6.2 mi NE 6.9 mph - N/A   Unknown
11:50 PM 42.8 °F 40.1 °F 30.2 °F 61% 29.98 in 6.2 mi NE 4.6 mph - N/A   Unknown